Weather Roundup
Issued by NWS Chicago, IL

Home | Current Version | Previous Version | Graphics & Text | Print | Product List | Glossary On
Versions: 1 2 3 4 5 6 7 8 9 10 11 12 13 14 15 16 17 18 19 20 21 22 23 24 25 26 27 28 29 30 31 32 33 34 35 36 37 38 39 40 41 42 43 44 45 46 47 48 49 50
000
NZUS59 KLOT 160400
HRRLOT

CHICAGO AREA WEATHER ROUNDUP
NATIONAL WEATHER SERVICE CHICAGO/ROMEOVILLE IL
1100 PM CDT TUE APR 15 2014

NOTE: "FAIR" INDICATES FEW OR NO CLOUDS BELOW 12,000 FEET WITH NO
SIGNIFICANT WEATHER AND/OR OBSTRUCTIONS TO VISIBILITY.

* THESE STATIONS ARE NOT UNDER NWS QUALITY CONTROL. THEY ALSO MAY NOT
  REPORT WEATHER SUCH AS PRECIPITATION OR FOG.

ILZ005-006-012>014-019>023-160500-
NORTHEAST ILLINOIS

CITY           SKY/WX    TMP DP  RH WIND       PRES   REMARKS
OHARE          CLEAR     31  19  61 S5        30.19S WCI  26
MIDWAY         CLEAR     34  21  59 S5        30.20S WCI  30
AURORA         CLEAR     29  21  72 SE3       30.19S
WAUKEGAN       CLEAR     27  22  81 CALM      30.19S
DUPAGE AIRPORT CLEAR     29  20  69 SE5       30.18S WCI  24
WHEELING       CLEAR     30  20  66 CALM      30.21S
NORTHERLY IS     N/A     34  20  57 S5          N/A  WCI  30
$$

WIZ051-052-058>065-066-070>072-160500-
SOUTHEAST WISCONSIN

CITY           SKY/WX    TMP DP  RH WIND       PRES   REMARKS
MILWAUKEE      CLEAR     28  20  71 CALM      30.20S
KENOSHA*       CLEAR     27  21  78 S5        30.19S WCI  22
RACINE*        CLEAR     30  23  75 S3        30.21S
$$

INZ001>003-010>013-019-020-160500-
NORTHWEST INDIANA

CITY           SKY/WX    TMP DP  RH WIND       PRES   REMARKS
GARY*          NOT AVBL
MICHIGAN CITY* NOT AVBL
RENSSELAER*    NOT AVBL
VALPARAISO     CLEAR     25  16  68 SE3       30.22S
$$

LMZ740>746-160500-
SOUTHERN LAKE MICHIGAN

STATION/POSITION TIME  SKY/WX   TEMP WIND        PRES    VSBY
                                AIR  DIR/SP/G
                 (UTC)          (F)  (DEG/KT/KT) (MB)    (MI)
HARRISON CRIB    0300            35  200/  8/ 10   N/A
BURNHAM HARBOR   0400            33  180/  5/  7   N/A
CALUMET HARBOR   0300            33  140/  4/  5 1023.6S
BURNS HARBOR     NOT AVBL
MICHIGAN CITY    0300            32  150/  3/  5   N/A
$$

ABBREVIATIONS USED IN REMARKS
   TC - TEMPERATURE IN CELSIUS
  WCI - WIND CHILL INDEX
   HX - HEAT INDEX
  VSB - VISIBILITY
$$


USA.gov is the U.S. government's official web portal to all federal, state and local government web resources and services.